Tracking 19831 objects as of 23-Aug-2019
HD Live streaming from Space Station
objects crossing your sky now

COSMOS 2251 DEB

Track COSMOS 2251 DEB now!
10-day predictions


NORAD ID: 36002
Int'l Code: 1993-036AWU
Perigee: 611.5 km
Apogee: 718.2 km
Inclination: 74.0 °
Period: 97.9 minutes
Semi major axis: 7035 km
RCS: 0.0085 m2 (small)
Launch date: June 16, 1993
Source: Commonwealth of Independent States (former USSR) (CIS)
Launch site: PLESETSK MISSILE AND SPACE COMPLEX (PKMTR)

Note: This is SATELLITE DEBRIS
aabbcc
Your satellite tracking list
Your tracking list is empty




NASA's NSSDC Master Catalog

Two Line Element Set (TLE):
1 36002U 93036AWU 19234.59276804 +.00000391 +00000-0 +66482-4 0  9995
2 36002 074.0126 198.4675 0075823 195.6745 164.2079 14.71065003332065
Source of the keplerian elements: AFSPC